sat.trackr.live / text

‹ back to catalog

STARLINK-36108

NORAD 66868 · 2025-281W

PAYLOAD ACTIVE UNKNOWN

§ Identity

Operator
Country
US
Launch date
2025-12-02
Launch site
AFETR
Launch vehicle
Mass (kg)
RCS (m²)

Purposes: comms

External: N2YO · Heavens-Above · Gunter

§ Orbital elements

Epoch: 2026-09-20T21:05:19.613472Z

Period
94.27 min
Inclination
43.0045°
Eccentricity
0.0001801
Mean motion
15.27589549 rev/d
Perigee alt
481.8 km
Apogee alt
484.3 km
Semi-major
6,861.2 km
B*
5.6000e-4
RAAN
321.4519°
Arg perigee
269.0326°
Mean anomaly
91.0319°
Rev number
4,602

§ Raw data

STARLINK-361081 66868U 25281W   26263.87869923  .00015184  00000+0  56000-3 0  99952 66868  43.0045 321.4519 0001801 269.0326  91.0319 15.27589549 46025

JSON: /api/v1/satellites/66868 · /tle

For live sub-satellite position, see the globe view (requires WebGL).

§ Visibility from observer

Set your observer location to see the next 7 days of passes ≥ 10°. The values pass through the URL so the page stays shareable.

No JS? Fill the form by hand. The geolocation button needs JavaScript.